TimeEST,TemperatureF,Dew PointF,Humidity,Sea Level PressureIn,VisibilityMPH,Wind Direction,Wind SpeedMPH,Gust SpeedMPH,PrecipitationIn,Events,Conditions,WindDirDegrees,DateUTC
12:35 AM,30.0,23.9,78,30.33,4.0,WSW,4.6,-,N/A,,Haze,250,2013-01-07 05:35:00
12:55 AM,30.0,23.9,78,30.33,4.0,WSW,3.5,-,N/A,,Haze,240,2013-01-07 05:55:00
1:15 AM,30.0,23.9,78,30.33,4.0,Calm,Calm,-,N/A,,Haze,0,2013-01-07 06:15:00
1:35 AM,30.0,24.1,79,30.33,4.0,Calm,Calm,-,N/A,,Haze,0,2013-01-07 06:35:00
1:55 AM,30.2,24.4,79,30.33,5.0,Calm,Calm,-,N/A,,Haze,0,2013-01-07 06:55:00
2:15 AM,30.2,24.4,79,30.34,5.0,Calm,Calm,-,N/A,,Haze,0,2013-01-07 07:15:00
2:35 AM,30.4,24.4,79,30.34,5.0,Calm,Calm,-,N/A,,Haze,0,2013-01-07 07:35:00
2:55 AM,30.4,24.6,79,30.35,5.0,Calm,Calm,-,N/A,,Haze,0,2013-01-07 07:55:00
3:15 AM,30.2,24.8,80,30.35,4.0,South,3.5,-,N/A,,Haze,170,2013-01-07 08:15:00
3:35 AM,30.2,24.8,80,30.36,5.0,SSW,5.8,-,N/A,,Haze,210,2013-01-07 08:35:00
3:55 AM,30.6,25.0,80,30.36,5.0,SSW,4.6,-,N/A,,Haze,200,2013-01-07 08:55:00
4:15 AM,30.4,25.0,80,30.37,5.0,SW,4.6,-,N/A,,Haze,230,2013-01-07 09:15:00
4:35 AM,30.2,25.2,82,30.37,5.0,SSW,3.5,-,N/A,,Haze,210,2013-01-07 09:35:00
4:55 AM,30.2,25.2,82,30.37,5.0,Calm,Calm,-,N/A,,Haze,0,2013-01-07 09:55:00
5:15 AM,30.2,25.2,82,30.38,5.0,Calm,Calm,-,N/A,,Haze,0,2013-01-07 10:15:00
5:35 AM,30.2,25.0,81,30.38,5.0,Calm,Calm,-,N/A,,Haze,0,2013-01-07 10:35:00
5:55 AM,30.2,25.0,81,30.38,5.0,South,3.5,-,N/A,,Haze,190,2013-01-07 10:55:00
6:15 AM,29.8,24.8,81,30.38,4.0,South,4.6,-,N/A,,Overcast,170,2013-01-07 11:15:00
6:35 AM,29.3,24.8,83,30.40,4.0,South,3.5,-,N/A,,Overcast,190,2013-01-07 11:35:00
6:55 AM,29.8,24.8,81,30.41,5.0,SW,3.5,-,N/A,,Haze,220,2013-01-07 11:55:00
7:35 AM,30.0,24.8,81,30.43,5.0,SW,4.6,-,N/A,,Haze,220,2013-01-07 12:35:00
7:55 AM,30.0,24.8,81,30.43,4.0,SSW,4.6,-,N/A,,Haze,210,2013-01-07 12:55:00
8:15 AM,30.0,25.2,82,30.45,5.0,SW,5.8,-,N/A,,Haze,220,2013-01-07 13:15:00
8:35 AM,30.2,25.2,82,30.45,5.0,SSW,5.8,-,N/A,,Haze,200,2013-01-07 13:35:00
8:55 AM,30.6,25.2,80,30.46,5.0,South,5.8,-,N/A,,Haze,190,2013-01-07 13:55:00
9:15 AM,30.9,25.3,80,30.47,5.0,SSW,5.8,-,N/A,,Haze,200,2013-01-07 14:15:00
9:35 AM,31.1,25.3,79,30.47,5.0,SSW,6.9,-,N/A,,Haze,210,2013-01-07 14:35:00
9:55 AM,31.5,25.3,78,30.47,5.0,SSW,5.8,-,N/A,,Haze,210,2013-01-07 14:55:00
10:15 AM,31.8,25.5,78,30.48,5.0,SSW,6.9,-,N/A,,Haze,200,2013-01-07 15:15:00
10:35 AM,32.0,25.5,77,30.48,5.0,SSW,4.6,-,N/A,,Haze,210,2013-01-07 15:35:00
10:55 AM,32.5,25.5,75,30.47,5.0,SW,4.6,-,N/A,,Haze,220,2013-01-07 15:55:00
11:15 AM,33.4,25.9,74,30.46,7.0,South,5.8,-,N/A,,Clear,190,2013-01-07 16:15:00
11:35 AM,33.8,25.9,73,30.45,7.0,SSW,5.8,-,N/A,,Clear,200,2013-01-07 16:35:00
11:55 AM,34.5,26.1,71,30.44,7.0,SSW,4.6,-,N/A,,Clear,200,2013-01-07 16:55:00
12:15 PM,34.9,25.7,69,30.43,7.0,South,4.6,-,N/A,,Clear,190,2013-01-07 17:15:00
12:35 PM,35.1,25.5,68,30.41,7.0,SSW,5.8,-,N/A,,Scattered Clouds,200,2013-01-07 17:35:00
12:55 PM,34.7,25.2,68,30.40,7.0,SSE,8.1,-,N/A,,Mostly Cloudy,160,2013-01-07 17:55:00
1:15 PM,34.7,25.3,69,30.40,10.0,SSE,8.1,-,N/A,,Overcast,160,2013-01-07 18:15:00
1:35 PM,35.1,24.8,66,30.39,10.0,South,4.6,-,N/A,,Overcast,170,2013-01-07 18:35:00
2:15 PM,36.1,24.4,63,30.38,10.0,South,8.1,-,N/A,,Scattered Clouds,170,2013-01-07 19:15:00
2:35 PM,36.3,24.4,62,30.37,10.0,South,5.8,-,N/A,,Clear,170,2013-01-07 19:35:00
2:55 PM,36.7,25.2,63,30.37,10.0,South,5.8,-,N/A,,Clear,190,2013-01-07 19:55:00
3:15 PM,37.2,25.3,62,30.36,10.0,South,3.5,-,N/A,,Clear,180,2013-01-07 20:15:00
3:35 PM,37.4,25.3,62,30.35,10.0,SSE,5.8,-,N/A,,Clear,160,2013-01-07 20:35:00
3:55 PM,37.4,25.3,62,30.35,10.0,South,4.6,-,N/A,,Clear,180,2013-01-07 20:55:00
4:15 PM,37.4,25.2,61,30.36,10.0,South,4.6,-,N/A,,Clear,180,2013-01-07 21:15:00
4:35 PM,37.4,25.7,63,30.35,10.0,SSW,3.5,-,N/A,,Clear,210,2013-01-07 21:35:00
4:55 PM,36.9,25.7,64,30.35,10.0,SSW,3.5,-,N/A,,Clear,200,2013-01-07 21:55:00
5:15 PM,36.3,25.7,65,30.35,10.0,South,3.5,-,N/A,,Clear,180,2013-01-07 22:15:00
5:35 PM,34.7,25.3,69,30.33,10.0,SSE,4.6,-,N/A,,Clear,150,2013-01-07 22:35:00
6:15 PM,33.6,24.8,70,30.33,10.0,SSE,4.6,-,N/A,,Clear,150,2013-01-07 23:15:00
6:35 PM,32.9,24.8,72,30.32,10.0,SE,6.9,-,N/A,,Clear,140,2013-01-07 23:35:00
6:55 PM,32.5,24.4,72,30.31,10.0,SE,4.6,-,N/A,,Clear,130,2013-01-07 23:55:00
7:15 PM,32.4,24.3,72,30.31,10.0,SSE,5.8,-,N/A,,Clear,150,2013-01-08 00:15:00
7:35 PM,32.0,23.7,71,30.30,10.0,SSE,6.9,-,N/A,,Clear,150,2013-01-08 00:35:00
7:55 PM,31.8,23.4,71,30.30,10.0,SE,8.1,-,N/A,,Clear,140,2013-01-08 00:55:00
8:15 PM,32.0,23.5,71,30.30,10.0,SSE,5.8,-,N/A,,Clear,150,2013-01-08 01:15:00
8:35 PM,31.5,23.2,71,30.30,10.0,SSE,6.9,-,N/A,,Clear,150,2013-01-08 01:35:00
8:55 PM,31.5,23.4,72,30.28,10.0,SE,5.8,-,N/A,,Clear,130,2013-01-08 01:55:00
9:15 PM,31.6,23.4,71,30.28,10.0,SE,4.6,-,N/A,,Clear,130,2013-01-08 02:15:00
9:35 PM,31.5,23.2,71,30.27,10.0,SE,5.8,-,N/A,,Clear,130,2013-01-08 02:35:00
9:55 PM,31.1,23.0,72,30.26,10.0,Calm,Calm,-,N/A,,Clear,0,2013-01-08 02:55:00
10:15 PM,30.6,23.0,74,30.26,10.0,Calm,Calm,-,N/A,,Clear,0,2013-01-08 03:15:00
10:35 PM,29.7,22.6,75,30.26,7.0,ESE,3.5,-,N/A,,Clear,110,2013-01-08 03:35:00
10:55 PM,27.0,21.7,81,30.26,7.0,Calm,Calm,-,N/A,,Clear,0,2013-01-08 03:55:00
11:15 PM,29.5,22.8,76,30.27,7.0,Calm,Calm,-,N/A,,Clear,0,2013-01-08 04:15:00
11:35 PM,28.0,21.9,78,30.27,7.0,NE,3.5,-,N/A,,Clear,40,2013-01-08 04:35:00
11:55 PM,27.0,21.7,81,30.26,7.0,Calm,Calm,-,N/A,,Clear,0,2013-01-08 04:55:00